[[{"header":{"parameterUnit":"m.s-1","parameterCategory":2,"la1":30.2991,"la2":30.254,"lo1":-89.0895,"lo2":-89.0444,"dy":0.0017,"dx":0.0017,"nx":28,"ny":28,"refTime":"2023-10-30T21:00:00:Z","depth":"0","parameterNumber":2,"parameterNumberName":"U-component_of_CURRENTS"},"data":[0,0,0,0,0,0,0,0,0,0,0,0,0,0,0,0,0,0,0,0,0,0,0,0,0,0,0,0,0,0,0,0,0,0,0,0,0,0,0,0,0,0,0,0,0,0,0,0,0,0,0,0,0,0,0,0,0,0,-0.2744,-0.2744,0,-0.2747,-0.2747,-0.2747,-0.273,-0.273,-0.2729,-0.2729,-0.2711,-0.2711,-0.2711,0,0,0,0,0,0,0,0,0,0,0,0,0,-0.2687,-0.2688,-0.2744,-0.2744,-0.2744,-0.2747,-0.2747,-0.2747,-0.273,-0.273,-0.2729,-0.2728,-0.2711,-0.2711,-0.2711,0,0,0,0,0,0,0,0,0,0,0,0,0,-0.2703,-0.2689,-0.2744,-0.2736,-0.2735,-0.2747,-0.2747,-0.2747,-0.273,-0.273,-0.2729,-0.2728,-0.2711,-0.2711,-0.2711,-0.2726,0,0,-0.2711,-0.2711,0,0,0,0,0,0,0,0,-0.2702,-0.2705,-0.2737,-0.2736,-0.2736,-0.2737,-0.2721,-0.2739,-0.273,-0.2732,-0.2729,-0.2728,-0.2719,-0.2718,-0.2721,-0.2725,-0.2724,-0.2711,-0.2711,-0.2711,-0.2711,0,0,0,0,0,0,0,-0.2701,-0.2705,-0.2745,-0.2737,-0.2736,-0.272,-0.2721,-0.2724,-0.2729,-0.2732,-0.2731,-0.2731,-0.2718,-0.2721,-0.272,-0.2724,-0.2711,-0.2711,-0.2711,-0.2711,-0.2705,-0.2705,0,0,0,0,0,0,-0.2704,-0.2704,-0.2745,-0.2745,-0.2717,-0.2721,-0.2723,-0.2738,-0.2729,-0.2728,-0.2732,-0.273,-0.2721,-0.272,-0.2719,-0.2716,-0.2711,-0.2711,-0.2711,-0.2706,-0.2705,-0.2705,0,0,0,0,0,0,-0.2703,-0.2708,-0.2745,-0.2724,-0.2727,-0.2723,-0.2739,-0.2738,-0.2733,-0.273,-0.2727,-0.2727,-0.272,-0.2719,-0.2719,-0.2716,-0.2711,-0.2711,-0.2706,-0.2705,-0.2705,-0.2723,0,0,0,0,0,0,-0.2701,-0.2708,-0.2711,-0.2724,-0.2728,-0.2754,-0.274,-0.2739,-0.2735,-0.2733,-0.2725,-0.2723,-0.272,-0.2719,-0.2719,-0.2716,-0.2711,-0.2706,-0.2706,-0.2705,-0.2722,-0.2723,-0.2724,0,0,0,0,0,-0.27,-0.2704,-0.2712,-0.2716,-0.2737,-0.2754,-0.2755,-0.2749,-0.2735,-0.274,-0.2731,-0.2723,-0.2716,-0.2719,-0.2719,-0.2716,-0.2706,-0.2706,-0.2705,-0.2722,-0.2723,-0.2724,0,0,0,0,0,0,-0.2671,-0.2704,-0.2712,-0.2724,-0.2741,-0.2751,-0.2749,-0.2747,-0.2744,-0.2737,-0.2729,-0.2727,-0.2724,-0.2718,-0.2721,-0.2712,-0.2707,-0.2706,-0.2719,-0.272,-0.2721,-0.2724,-0.2711,0,0,0,0,0,-0.2672,-0.2688,-0.2716,-0.2723,-0.2735,-0.2743,-0.2745,-0.2747,-0.2749,-0.2746,-0.2744,-0.2734,-0.2725,-0.2721,-0.2718,-0.2719,-0.271,-0.2713,-0.2714,-0.2715,-0.2716,-0.2705,-0.2705,-0.2704,-0.2704,-0.2704,0,0,-0.2658,-0.268,-0.2685,-0.2719,-0.273,-0.275,-0.2742,-0.2751,-0.2759,-0.2745,-0.2751,-0.2741,-0.2726,-0.2725,-0.2722,-0.2718,-0.271,-0.2714,-0.2715,-0.2716,-0.2704,-0.2704,-0.2705,-0.2704,-0.2704,-0.2704,0,0,-0.2647,-0.2668,-0.2682,-0.2707,-0.2733,-0.2744,-0.2747,-0.2767,-0.2766,-0.2777,-0.276,-0.275,-0.2749,-0.2735,-0.2725,-0.2728,-0.2716,-0.2722,-0.2728,-0.2717,-0.2717,-0.2717,-0.2706,-0.2705,-0.2721,-0.2721,-0.2721,0,-0.2629,-0.2653,-0.2684,-0.2713,-0.2721,-0.2743,-0.2754,-0.277,-0.2784,-0.278,-0.2781,-0.2762,-0.2752,-0.2733,-0.2733,-0.273,-0.2722,-0.2728,-0.2719,-0.2719,-0.2718,-0.2707,-0.2705,-0.2722,-0.2721,-0.2721,-0.2721,0,-0.2637,-0.2657,-0.2667,-0.2713,-0.2731,-0.2743,-0.2776,-0.279,-0.2791,-0.2799,-0.2789,-0.278,-0.2763,-0.2757,-0.2748,-0.2733,-0.2728,-0.2724,-0.2719,-0.272,-0.2707,-0.2705,-0.2723,-0.2722,-0.2722,-0.2722,0,0,-0.2586,-0.2657,-0.2658,-0.2676,-0.2727,-0.2741,-0.2767,-0.2783,-0.2789,-0.2804,-0.2798,-0.2784,-0.2776,-0.2764,-0.2747,-0.2739,-0.2731,-0.2732,-0.2731,-0.2725,-0.2707,-0.2719,-0.2718,-0.2726,-0.2726,-0.2726,-0.2699,0,-0.2573,-0.261,-0.2651,-0.2675,-0.2691,-0.2731,-0.2753,-0.2777,-0.2792,-0.2804,-0.2793,-0.2785,-0.278,-0.2765,-0.2758,-0.274,-0.2727,-0.2738,-0.2704,-0.2703,-0.2717,-0.2717,-0.2673,-0.2647,-0.2697,-0.2697,-0.2697,0,-0.2553,-0.2584,-0.2601,-0.2651,-0.2662,-0.2681,-0.2706,-0.2734,-0.2767,-0.2778,-0.2779,-0.2782,-0.277,-0.2766,-0.2741,-0.275,-0.2728,-0.2716,-0.2714,-0.2719,-0.2712,-0.2654,-0.2642,-0.26,-0.2694,-0.2694,-0.2694,0,-0.2479,-0.2538,-0.2541,-0.2563,-0.2633,-0.2638,-0.2666,-0.2709,-0.2725,-0.2756,-0.2771,-0.2767,-0.2764,-0.2745,-0.274,-0.2733,-0.2721,-0.2704,-0.2691,-0.2691,-0.2644,-0.2641,-0.259,-0.2677,-0.2677,-0.2677,-0.2677,0,-0.2435,-0.2439,-0.2507,-0.2518,-0.2521,-0.2589,-0.2595,-0.2633,-0.2678,-0.2701,-0.2745,-0.2759,-0.276,-0.2765,-0.2743,-0.2726,-0.2722,-0.2693,-0.2686,-0.2649,-0.2647,-0.2601,-0.259,-0.2676,-0.2677,-0.2677,-0.2677,0,-0.2344,-0.2394,-0.2405,-0.247,-0.2486,-0.2486,-0.2548,-0.2563,-0.2626,-0.2658,-0.2668,-0.274,-0.2761,-0.2769,-0.2747,-0.2732,-0.2665,-0.2698,-0.2662,-0.2652,-0.2596,-0.2588,-0.2513,-0.244,-0.2666,-0.2666,-0.2666,0,-0.2296,-0.2293,-0.2348,-0.2355,-0.2379,-0.2402,-0.2422,-0.2505,-0.254,-0.2646,-0.2661,-0.2713,-0.275,-0.2755,-0.276,-0.2738,-0.2658,-0.265,-0.2627,-0.2591,-0.2576,-0.2542,-0.2482,-0.2563,-0.2563,-0.2562,-0.2562,0,-0.2198,-0.2215,-0.2232,-0.2243,-0.2261,-0.2287,-0.2335,-0.2354,-0.2469,-0.2525,-0.2604,-0.2645,-0.2731,-0.2734,-0.2742,-0.27,-0.2585,-0.2637,-0.2597,-0.2495,-0.2455,-0.2381,-0.2587,-0.2556,-0.2557,-0.2557,-0.2558,-0.2558,-0.2107,-0.209,-0.2109,-0.2109,-0.2135,-0.2147,-0.2131,-0.2231,-0.2277,-0.2375,-0.2495,-0.2594,-0.267,-0.2706,-0.2685,-0.2617,-0.2577,-0.25,-0.2492,-0.2462,-0.2391,-0.2599,-0.2568,-0.2569,-0.257,-0.257,-0.257,0,-0.1981,-0.1976,-0.1975,-0.1975,-0.1954,-0.2009,-0.2051,-0.2033,-0.2071,-0.2275,-0.2366,-0.2554,-0.2556,-0.2616,-0.2616,-0.2508,-0.2415,-0.2377,-0.23,-0.2242,-0.2421,-0.2417,-0.2356,-0.2356,-0.2356,-0.2356,-0.2356,-0.2356,-0.1915,-0.1861,-0.1864,-0.1783,-0.1784,-0.1717,-0.171,-0.1741,-0.1854,-0.2037,-0.2259,-0.2477,-0.2523,-0.2658,-0.2534,-0.2398,-0.2269,-0.2191,-0.2143,-0.227,-0.228,-0.2289,-0.2282,-0.2194,-0.2193,-0.1908,-0.1906,-0.1905]},{"header":{"parameterUnit":"m.s-1","parameterCategory":2,"la1":30.2991,"la2":30.254,"lo1":-89.0895,"lo2":-89.0444,"dy":0.0017,"dx":0.0017,"nx":28,"ny":28,"refTime":"2023-10-30T21:00:00:Z","depth":"0","parameterNumber":3,"parameterNumberName":"V-component_of_CURRENTS"},"data":[0,0,0,0,0,0,0,0,0,0,0,0,0,0,0,0,0,0,0,0,0,0,0,0,0,0,0,0,0,0,0,0,0,0,0,0,0,0,0,0,0,0,0,0,0,0,0,0,0,0,0,0,0,0,0,0,0,0,-0.049,-0.0489,0,-0.0393,-0.0392,-0.0391,-0.0343,-0.0343,-0.0343,-0.0343,-0.0198,-0.0194,-0.0191,0,0,0,0,0,0,0,0,0,0,0,0,0,-0.0569,-0.0568,-0.049,-0.0488,-0.0487,-0.0393,-0.0392,-0.0391,-0.0343,-0.0343,-0.0343,-0.0343,-0.0199,-0.0195,-0.019,0,0,0,0,0,0,0,0,0,0,0,0,0,-0.0511,-0.0568,-0.049,-0.0451,-0.0446,-0.0393,-0.0392,-0.039,-0.0343,-0.0343,-0.0343,-0.0343,-0.0201,-0.0195,-0.019,-0.016,0,0,-0.0173,-0.017,0,0,0,0,0,0,0,0,-0.0515,-0.0509,-0.0458,-0.0453,-0.0448,-0.0378,-0.0366,-0.031,-0.0343,-0.0384,-0.0343,-0.0342,-0.0253,-0.0243,-0.0228,-0.0153,-0.0147,-0.0172,-0.0169,-0.0166,-0.0165,0,0,0,0,0,0,0,-0.0519,-0.0512,-0.0453,-0.0456,-0.045,-0.0416,-0.0408,-0.0356,-0.0321,-0.038,-0.0376,-0.0363,-0.025,-0.0234,-0.0224,-0.0145,-0.0172,-0.0167,-0.0164,-0.0162,-0.0038,-0.0038,0,0,0,0,0,0,-0.0531,-0.0516,-0.0456,-0.045,-0.048,-0.0415,-0.0406,-0.0402,-0.0323,-0.031,-0.0363,-0.0361,-0.0244,-0.0231,-0.0219,-0.0182,-0.0166,-0.0161,-0.0158,-0.0038,-0.0038,-0.0038,0,0,0,0,0,0,-0.0533,-0.0527,-0.046,-0.0479,-0.0468,-0.0414,-0.041,-0.0401,-0.0383,-0.031,-0.0297,-0.0355,-0.0243,-0.0227,-0.0182,-0.0175,-0.0159,-0.0154,-0.0038,-0.0038,-0.0038,-0.0104,0,0,0,0,0,0,-0.0536,-0.0529,-0.053,-0.048,-0.0467,-0.0439,-0.0409,-0.0399,-0.0374,-0.0371,-0.0298,-0.0285,-0.0241,-0.0191,-0.0177,-0.0167,-0.0149,-0.0038,-0.0038,-0.0038,-0.0102,-0.0107,-0.0111,0,0,0,0,0,-0.0539,-0.054,-0.0531,-0.0523,-0.0471,-0.0439,-0.043,-0.0391,-0.0375,-0.0374,-0.0327,-0.0287,-0.0181,-0.0187,-0.017,-0.0159,-0.0038,-0.0038,-0.0038,-0.01,-0.0106,-0.0111,0,0,0,0,0,0,-0.0569,-0.0533,-0.0523,-0.0511,-0.0484,-0.0431,-0.042,-0.0395,-0.0357,-0.0353,-0.0287,-0.027,-0.023,-0.0187,-0.0194,-0.0125,-0.0103,-0.01,-0.0156,-0.016,-0.0164,-0.0172,-0.0145,0,0,0,0,0,-0.0579,-0.0577,-0.0535,-0.0529,-0.0516,-0.0471,-0.0452,-0.0429,-0.0387,-0.0371,-0.0322,-0.0267,-0.0216,-0.0185,-0.014,-0.0098,-0.0065,-0.008,-0.0084,-0.0088,-0.0083,-0.004,-0.004,-0.0039,-0.0039,-0.0039,0,0,-0.0589,-0.057,-0.0568,-0.0537,-0.0511,-0.0499,-0.046,-0.0439,-0.0424,-0.0359,-0.0328,-0.0282,-0.0211,-0.0171,-0.0147,-0.0133,-0.0074,-0.0088,-0.0092,-0.0085,-0.004,-0.004,-0.004,-0.0039,-0.0039,-0.0039,0,0,-0.0612,-0.0594,-0.0601,-0.0581,-0.0549,-0.0521,-0.0519,-0.0473,-0.0449,-0.0415,-0.0365,-0.0319,-0.0244,-0.0194,-0.0156,-0.0153,-0.0104,-0.0137,-0.0155,-0.0114,-0.0114,-0.0113,-0.0089,-0.0086,-0.0134,-0.0134,-0.0134,0,-0.063,-0.0628,-0.0598,-0.0596,-0.0579,-0.0536,-0.0536,-0.0504,-0.0451,-0.0425,-0.0416,-0.0305,-0.0253,-0.0185,-0.0187,-0.0162,-0.0137,-0.0144,-0.012,-0.0119,-0.0117,-0.0092,-0.0088,-0.0137,-0.0137,-0.0136,-0.0136,0,-0.0654,-0.0651,-0.0652,-0.064,-0.0622,-0.0614,-0.0568,-0.0548,-0.0514,-0.0475,-0.0414,-0.0348,-0.0278,-0.0256,-0.0217,-0.0171,-0.016,-0.0138,-0.0111,-0.0121,-0.0094,-0.0089,-0.0141,-0.014,-0.0139,-0.0139,0,0,-0.0701,-0.0677,-0.0678,-0.0678,-0.0643,-0.0633,-0.0607,-0.0564,-0.0542,-0.0489,-0.045,-0.0367,-0.0329,-0.0284,-0.023,-0.019,-0.0165,-0.0163,-0.0159,-0.0146,-0.0086,-0.0043,-0.0032,-0.0141,-0.014,-0.0139,-0.0079,0,-0.0733,-0.0747,-0.0716,-0.0724,-0.0727,-0.0675,-0.0661,-0.0616,-0.0563,-0.0518,-0.0434,-0.0383,-0.0338,-0.0309,-0.0261,-0.0181,-0.0149,-0.0183,-0.0071,-0.0068,-0.0033,-0.0023,-0.0018,0.004,-0.0073,-0.0072,-0.0071,0,-0.0768,-0.0772,-0.0788,-0.0771,-0.0767,-0.0763,-0.0721,-0.0695,-0.0613,-0.0571,-0.0495,-0.043,-0.0345,-0.0322,-0.0194,-0.0218,-0.0161,-0.0108,-0.0104,-0.0032,-0.0012,0.0038,0.0056,0.0161,-0.0061,-0.0062,-0.0063,0,-0.0828,-0.082,-0.0837,-0.083,-0.0806,-0.0797,-0.0779,-0.0714,-0.069,-0.0598,-0.0573,-0.0459,-0.0406,-0.031,-0.0187,-0.0193,-0.0058,-0.0051,0.0038,0.0041,0.0086,0.0092,0.0218,0.0021,0.0021,0.0021,0.0021,0,-0.0875,-0.0886,-0.0868,-0.0878,-0.0899,-0.0855,-0.0852,-0.0811,-0.075,-0.0726,-0.0608,-0.0564,-0.0402,-0.0298,-0.0197,-0.0049,-0.0061,0.0042,0.0068,0.0062,0.0065,0.0192,0.0259,0.0023,0.0023,0.0022,0.0022,0,-0.0936,-0.0923,-0.0943,-0.093,-0.0929,-0.0944,-0.0918,-0.0913,-0.0844,-0.0807,-0.0784,-0.0638,-0.0493,-0.0331,-0.0164,-0.0062,0.0148,0.0117,0.0095,0.0118,0.0301,0.0364,0.0568,0.0606,0.0225,0.0226,0.0228,0,-0.0967,-0.0985,-0.0994,-0.1017,-0.1013,-0.1021,-0.1034,-0.0974,-0.0961,-0.0855,-0.0848,-0.0691,-0.0585,-0.0304,-0.0081,0.012,0.0208,0.0236,0.0235,0.0326,0.0414,0.0472,0.0491,0.0256,0.0257,0.0258,0.0259,0,-0.1023,-0.1026,-0.1045,-0.1095,-0.1119,-0.1142,-0.1144,-0.1151,-0.1076,-0.1044,-0.0962,-0.0865,-0.0556,-0.03,-0.0002,0.0125,0.0334,0.0267,0.0374,0.047,0.0531,0.0572,0.0187,0.027,0.0269,0.0268,0.0268,0.0267,-0.1062,-0.1096,-0.1123,-0.1171,-0.1207,-0.125,-0.1275,-0.127,-0.1265,-0.1208,-0.1074,-0.0926,-0.0493,-0.0059,0.0094,0.0442,0.0436,0.0517,0.0588,0.0639,0.0683,0.032,0.0429,0.0428,0.0428,0.0428,0.0428,0,-0.1106,-0.1142,-0.1195,-0.1254,-0.1313,-0.1306,-0.134,-0.1359,-0.1371,-0.1287,-0.1194,-0.0757,-0.0359,0.0045,0.0581,0.0751,0.0774,0.0827,0.0897,0.0899,0.0583,0.059,0.0724,0.0724,0.0724,0.0724,0.0724,0.0723,-0.1129,-0.1189,-0.1219,-0.1327,-0.1371,-0.1436,-0.1458,-0.1482,-0.1431,-0.1299,-0.1081,-0.088,-0.0217,0.0668,0.11,0.1101,0.1209,0.1218,0.1274,0.1044,0.1019,0.0995,0.1016,0.1237,0.1238,0.1537,0.1541,0.1543]}],[{"header":{"parameterUnit":"m.s-1","parameterCategory":2,"la1":30.2991,"la2":30.254,"lo1":-89.0895,"lo2":-89.0444,"dy":0.0017,"dx":0.0017,"nx":28,"ny":28,"refTime":"2023-10-30T21:00:00:Z","depth":"2","parameterNumber":2,"parameterNumberName":"U-component_of_CURRENTS"},"data":[0,0,0,0,0,0,0,0,0,0,0,0,0,0,0,0,0,0,0,0,0,0,0,0,0,0,0,0,0,0,0,0,0,0,0,0,0,0,0,0,0,0,0,0,0,0,0,0,0,0,0,0,0,0,0,0,0,0,-0.2714,-0.2714,0,-0.2715,-0.2715,-0.2715,-0.2696,-0.2695,-0.2695,-0.2694,-0.2679,-0.2679,-0.2679,0,0,0,0,0,0,0,0,0,0,0,0,0,-0.2655,-0.2656,-0.2714,-0.2714,-0.2714,-0.2715,-0.2715,-0.2715,-0.2696,-0.2695,-0.2695,-0.2694,-0.2679,-0.2679,-0.2679,0,0,0,0,0,0,0,0,0,0,0,0,0,-0.267,-0.2657,-0.2714,-0.2705,-0.2704,-0.2715,-0.2715,-0.2715,-0.2696,-0.2695,-0.2695,-0.2694,-0.2679,-0.2679,-0.2679,-0.2692,0,0,-0.2679,-0.2679,0,0,0,0,0,0,0,0,-0.2669,-0.2672,-0.2706,-0.2706,-0.2705,-0.2705,-0.2688,-0.2707,-0.2696,-0.2698,-0.2694,-0.2694,-0.2687,-0.2686,-0.2687,-0.2691,-0.2691,-0.2679,-0.2679,-0.2679,-0.2679,0,0,0,0,0,0,0,-0.2668,-0.2672,-0.2713,-0.2706,-0.2706,-0.2688,-0.2689,-0.2692,-0.2695,-0.2698,-0.2697,-0.2699,-0.2686,-0.2687,-0.2686,-0.269,-0.2679,-0.2679,-0.2679,-0.2679,-0.2672,-0.2672,0,0,0,0,0,0,-0.2673,-0.2671,-0.2713,-0.2714,-0.2686,-0.2689,-0.2691,-0.2705,-0.2696,-0.2694,-0.2699,-0.2698,-0.2687,-0.2687,-0.2686,-0.2684,-0.2679,-0.2679,-0.2679,-0.2672,-0.2672,-0.2672,0,0,0,0,0,0,-0.2672,-0.2677,-0.2713,-0.2692,-0.2695,-0.2692,-0.2707,-0.2706,-0.27,-0.2697,-0.2694,-0.2695,-0.2687,-0.2686,-0.2685,-0.2684,-0.2679,-0.2679,-0.2672,-0.2672,-0.2672,-0.2691,0,0,0,0,0,0,-0.2671,-0.2677,-0.268,-0.2693,-0.2697,-0.2723,-0.2708,-0.2706,-0.2703,-0.2701,-0.2693,-0.2691,-0.2686,-0.2685,-0.2685,-0.2683,-0.2679,-0.2673,-0.2672,-0.2672,-0.269,-0.2691,-0.2692,0,0,0,0,0,-0.2669,-0.2672,-0.2681,-0.2685,-0.2705,-0.2723,-0.2724,-0.2717,-0.2704,-0.2708,-0.2698,-0.2691,-0.2683,-0.2686,-0.2686,-0.2684,-0.2673,-0.2672,-0.2672,-0.269,-0.2691,-0.2692,0,0,0,0,0,0,-0.2638,-0.2671,-0.268,-0.2691,-0.271,-0.272,-0.2717,-0.2716,-0.2712,-0.2705,-0.2696,-0.2694,-0.2691,-0.2685,-0.2689,-0.2679,-0.2674,-0.2673,-0.2687,-0.2688,-0.2689,-0.2692,-0.2678,0,0,0,0,0,-0.2638,-0.2653,-0.2683,-0.269,-0.2701,-0.271,-0.2712,-0.2716,-0.2717,-0.2714,-0.2713,-0.2702,-0.2692,-0.2688,-0.2685,-0.2685,-0.2677,-0.268,-0.2681,-0.2682,-0.2683,-0.2673,-0.2673,-0.267,-0.267,-0.267,0,0,-0.2624,-0.2646,-0.2652,-0.2685,-0.2696,-0.2716,-0.2709,-0.2719,-0.2728,-0.2714,-0.2719,-0.2709,-0.2693,-0.2691,-0.2688,-0.2685,-0.2677,-0.2681,-0.2682,-0.2683,-0.2672,-0.2673,-0.2673,-0.267,-0.267,-0.267,0,0,-0.2612,-0.2632,-0.2644,-0.267,-0.2697,-0.2709,-0.2713,-0.2734,-0.2734,-0.2747,-0.2729,-0.2719,-0.2718,-0.2702,-0.2692,-0.2695,-0.2683,-0.2689,-0.2696,-0.2686,-0.2686,-0.2686,-0.2675,-0.2674,-0.2688,-0.2688,-0.2688,0,-0.2594,-0.2617,-0.2647,-0.2675,-0.2684,-0.2708,-0.272,-0.2735,-0.2752,-0.2748,-0.2751,-0.2731,-0.2721,-0.27,-0.27,-0.2697,-0.269,-0.2695,-0.2688,-0.2688,-0.2688,-0.2676,-0.2675,-0.2689,-0.2689,-0.2689,-0.2689,0,-0.26,-0.262,-0.2628,-0.2674,-0.2692,-0.2704,-0.2739,-0.2754,-0.2757,-0.2767,-0.2758,-0.2749,-0.2732,-0.2726,-0.2716,-0.2702,-0.2697,-0.2693,-0.2688,-0.2689,-0.2677,-0.2675,-0.269,-0.269,-0.269,-0.2689,0,0,-0.2549,-0.2617,-0.2618,-0.2637,-0.2688,-0.2703,-0.2728,-0.2745,-0.2752,-0.277,-0.2766,-0.2751,-0.2745,-0.2732,-0.2715,-0.2708,-0.2702,-0.2702,-0.2701,-0.2696,-0.268,-0.269,-0.2688,-0.2698,-0.2698,-0.2698,-0.2672,0,-0.2535,-0.2571,-0.261,-0.2636,-0.2651,-0.2692,-0.2713,-0.2739,-0.2755,-0.277,-0.2759,-0.2753,-0.2747,-0.2734,-0.2729,-0.2711,-0.2698,-0.2709,-0.2676,-0.2675,-0.2687,-0.2687,-0.2431,-0.2388,-0.267,-0.267,-0.267,0,-0.2514,-0.2545,-0.2562,-0.2612,-0.2623,-0.2643,-0.2669,-0.2697,-0.2732,-0.2743,-0.2746,-0.275,-0.2739,-0.2736,-0.2712,-0.2721,-0.27,-0.2688,-0.2687,-0.2688,-0.2681,-0.2432,-0.2374,-0.2667,-0.2667,-0.2667,-0.2667,0,-0.2442,-0.25,-0.2504,-0.2526,-0.2596,-0.2602,-0.2631,-0.2673,-0.269,-0.2723,-0.2739,-0.2735,-0.2734,-0.2716,-0.2712,-0.2706,-0.2695,-0.2679,-0.2664,-0.2664,-0.2436,-0.2417,-0.2653,-0.2653,-0.2653,-0.2653,-0.2653,0,-0.24,-0.2404,-0.2472,-0.2483,-0.2488,-0.2555,-0.2562,-0.26,-0.2646,-0.2669,-0.2714,-0.2728,-0.2731,-0.2737,-0.2716,-0.2699,-0.2696,-0.2666,-0.2659,-0.2437,-0.2419,-0.2654,-0.2654,-0.2652,-0.2653,-0.2653,-0.2653,0,-0.2311,-0.2361,-0.2372,-0.2438,-0.2454,-0.2455,-0.2516,-0.2532,-0.2595,-0.2628,-0.2638,-0.271,-0.2731,-0.274,-0.272,-0.2704,-0.2682,-0.2671,-0.2421,-0.2388,-0.265,-0.2652,-0.2637,-0.2637,-0.2637,-0.2637,-0.2637,0,-0.2264,-0.2262,-0.2318,-0.2324,-0.2349,-0.2373,-0.2393,-0.2476,-0.251,-0.2616,-0.263,-0.2683,-0.2713,-0.2718,-0.2668,-0.2632,-0.2688,-0.2399,-0.2347,-0.2654,-0.2649,-0.265,-0.2652,-0.2034,-0.2029,-0.2025,-0.2022,0,-0.2168,-0.2185,-0.2203,-0.2215,-0.2234,-0.2259,-0.2307,-0.2326,-0.244,-0.249,-0.2567,-0.2601,-0.2636,-0.2504,-0.2491,-0.243,-0.239,-0.2323,-0.2669,-0.2116,-0.2094,-0.2088,-0.2106,-0.1987,-0.199,-0.1993,-0.1995,-0.1996,-0.2079,-0.2062,-0.2082,-0.2083,-0.2109,-0.2121,-0.2104,-0.2186,-0.2224,-0.2271,-0.2409,-0.2402,-0.2383,-0.2259,-0.2161,-0.2078,-0.2248,-0.2111,-0.2118,-0.213,-0.2103,-0.2087,-0.1971,-0.1975,-0.1978,-0.198,-0.1982,0,-0.1948,-0.195,-0.195,-0.195,-0.1923,-0.1985,-0.2025,-0.1985,-0.1994,-0.2083,-0.2127,-0.1947,-0.1872,-0.1875,-0.1698,-0.1693,-0.1615,-0.1611,-0.1473,-0.151,-0.1542,-0.1481,-0.1186,-0.1184,-0.1182,-0.118,0,0,-0.1882,-0.1826,-0.1828,-0.1746,-0.1754,-0.1679,-0.1671,-0.1652,-0.1675,-0.1645,-0.1654,-0.1787,-0.184,-0.1519,-0.143,-0.1287,-0.1384,-0.1219,-0.1851,-0.1725,-0.1755,-0.182,-0.1767,0,0,0,0,0]},{"header":{"parameterUnit":"m.s-1","parameterCategory":2,"la1":30.2991,"la2":30.254,"lo1":-89.0895,"lo2":-89.0444,"dy":0.0017,"dx":0.0017,"nx":28,"ny":28,"refTime":"2023-10-30T21:00:00:Z","depth":"2","parameterNumber":3,"parameterNumberName":"V-component_of_CURRENTS"},"data":[0,0,0,0,0,0,0,0,0,0,0,0,0,0,0,0,0,0,0,0,0,0,0,0,0,0,0,0,0,0,0,0,0,0,0,0,0,0,0,0,0,0,0,0,0,0,0,0,0,0,0,0,0,0,0,0,0,0,-0.0418,-0.0417,0,-0.0319,-0.0318,-0.0317,-0.0269,-0.0269,-0.0269,-0.0269,-0.0128,-0.0125,-0.0121,0,0,0,0,0,0,0,0,0,0,0,0,0,-0.0494,-0.0493,-0.0418,-0.0417,-0.0415,-0.032,-0.0318,-0.0317,-0.0269,-0.0269,-0.0269,-0.0269,-0.013,-0.0125,-0.0121,0,0,0,0,0,0,0,0,0,0,0,0,0,-0.0436,-0.0493,-0.0418,-0.0379,-0.0374,-0.032,-0.0318,-0.0317,-0.0269,-0.0269,-0.0269,-0.0269,-0.0131,-0.0126,-0.012,-0.0089,0,0,-0.0103,-0.0101,0,0,0,0,0,0,0,0,-0.0439,-0.0433,-0.0386,-0.0382,-0.0376,-0.0306,-0.0293,-0.0238,-0.0269,-0.031,-0.0269,-0.0269,-0.0183,-0.0173,-0.0157,-0.0082,-0.0076,-0.0103,-0.01,-0.0097,-0.0096,0,0,0,0,0,0,0,-0.0444,-0.0437,-0.038,-0.0385,-0.0379,-0.0342,-0.0335,-0.0283,-0.0249,-0.0307,-0.0303,-0.029,-0.018,-0.0163,-0.0153,-0.0074,-0.0103,-0.0098,-0.0095,-0.0093,0.0028,0.0028,0,0,0,0,0,0,-0.0457,-0.0441,-0.0383,-0.0377,-0.0407,-0.0341,-0.0333,-0.0329,-0.025,-0.0238,-0.029,-0.0288,-0.0172,-0.016,-0.0148,-0.0113,-0.0097,-0.0092,-0.0089,0.0028,0.0028,0.0028,0,0,0,0,0,0,-0.046,-0.0454,-0.0387,-0.0405,-0.0394,-0.034,-0.0337,-0.0327,-0.031,-0.0238,-0.0225,-0.0283,-0.0172,-0.0156,-0.0113,-0.0107,-0.009,-0.0085,0.0028,0.0028,0.0028,-0.0038,0,0,0,0,0,0,-0.0462,-0.0455,-0.0456,-0.0407,-0.0394,-0.0366,-0.0336,-0.0326,-0.0302,-0.0298,-0.0227,-0.0214,-0.017,-0.0121,-0.0107,-0.0099,-0.008,0.0028,0.0028,0.0028,-0.0036,-0.0041,-0.0045,0,0,0,0,0,-0.0466,-0.0465,-0.0458,-0.045,-0.0398,-0.0367,-0.0357,-0.0318,-0.0302,-0.0301,-0.0255,-0.0216,-0.0112,-0.0117,-0.0101,-0.0091,0.0028,0.0028,0.0028,-0.0034,-0.004,-0.0045,0,0,0,0,0,0,-0.0493,-0.0459,-0.0449,-0.0438,-0.0412,-0.0359,-0.0347,-0.0323,-0.0285,-0.028,-0.0216,-0.0199,-0.016,-0.0118,-0.0125,-0.0057,-0.0035,-0.0032,-0.0088,-0.0093,-0.0097,-0.0105,-0.0076,0,0,0,0,0,-0.0503,-0.0501,-0.046,-0.0456,-0.0442,-0.0398,-0.0379,-0.0357,-0.0316,-0.0299,-0.0251,-0.0197,-0.0147,-0.0117,-0.0072,-0.0031,0.0002,-0.0014,-0.0018,-0.0022,-0.0018,0.0025,0.0025,0.0027,0.0027,0.0027,0,0,-0.0513,-0.0494,-0.0493,-0.0463,-0.0437,-0.0425,-0.0387,-0.0366,-0.0352,-0.0288,-0.0258,-0.0212,-0.0142,-0.0103,-0.008,-0.0066,-0.0009,-0.0023,-0.0027,-0.002,0.0025,0.0024,0.0024,0.0027,0.0027,0.0027,0,0,-0.0536,-0.0517,-0.0524,-0.0505,-0.0474,-0.0447,-0.0445,-0.0401,-0.0377,-0.0344,-0.0295,-0.0251,-0.0177,-0.0127,-0.0089,-0.0088,-0.0039,-0.0073,-0.0091,-0.0051,-0.005,-0.005,-0.0026,-0.0023,-0.0069,-0.0069,-0.0069,0,-0.0554,-0.0552,-0.0521,-0.052,-0.0504,-0.0462,-0.0462,-0.043,-0.038,-0.0355,-0.0346,-0.0238,-0.0186,-0.0119,-0.0122,-0.0096,-0.0072,-0.0079,-0.0057,-0.0056,-0.0054,-0.0029,-0.0025,-0.0072,-0.0072,-0.0072,-0.0071,0,-0.0579,-0.0576,-0.0575,-0.0565,-0.0546,-0.0539,-0.0495,-0.0475,-0.0443,-0.0405,-0.0346,-0.0281,-0.0213,-0.0191,-0.0152,-0.0108,-0.0096,-0.0075,-0.0048,-0.0058,-0.0032,-0.0026,-0.0077,-0.0076,-0.0075,-0.0074,0,0,-0.0626,-0.0601,-0.0603,-0.0603,-0.0568,-0.0559,-0.0533,-0.0492,-0.0471,-0.042,-0.0383,-0.0301,-0.0264,-0.022,-0.0166,-0.0127,-0.0103,-0.01,-0.0096,-0.0083,-0.0026,0.0017,0.0028,-0.0079,-0.0078,-0.0078,-0.0018,0,-0.0658,-0.0673,-0.0642,-0.0651,-0.0654,-0.0602,-0.0588,-0.0545,-0.0493,-0.045,-0.0367,-0.0317,-0.0273,-0.0245,-0.0198,-0.0119,-0.0088,-0.0121,-0.001,-0.0007,0.0028,0.0037,0.0046,0.0104,-0.0012,-0.0011,-0.0011,0,-0.0695,-0.0699,-0.0715,-0.0699,-0.0694,-0.0692,-0.065,-0.0625,-0.0544,-0.0504,-0.0429,-0.0365,-0.0283,-0.0259,-0.0133,-0.0157,-0.01,-0.0048,-0.0044,0.0028,0.0049,0.0101,0.0119,-0.0,-0.0001,-0.0002,-0.0003,0,-0.0755,-0.0748,-0.0765,-0.0759,-0.0735,-0.0727,-0.0709,-0.0645,-0.0621,-0.0532,-0.0508,-0.0396,-0.0344,-0.0249,-0.0127,-0.0133,0.0001,0.0008,0.0096,0.0099,0.0148,0.0154,0.0079,0.0079,0.0079,0.0078,0.0078,0,-0.0802,-0.0815,-0.0797,-0.0807,-0.083,-0.0786,-0.0784,-0.0743,-0.0683,-0.066,-0.0543,-0.05,-0.0341,-0.0237,-0.0138,0.0009,-0.0003,0.01,0.0125,0.0123,0.0126,0.0073,0.0071,0.0081,0.008,0.008,0.0079,0,-0.0864,-0.0853,-0.0873,-0.0861,-0.086,-0.0875,-0.085,-0.0846,-0.0777,-0.0741,-0.0719,-0.0574,-0.043,-0.027,-0.0105,-0.0004,0.0127,0.0173,0.0156,0.018,0.0193,0.0187,0.0276,0.0278,0.028,0.0281,0.0283,0,-0.0896,-0.0914,-0.0924,-0.0948,-0.0944,-0.0953,-0.0966,-0.0907,-0.0893,-0.0788,-0.078,-0.0625,-0.0516,-0.0238,-0.0014,0.0187,0.0165,0.0296,0.0295,0.0201,0.0217,0.0209,0.0201,0.0321,0.0323,0.0324,0.0325,0,-0.0953,-0.0956,-0.0975,-0.1026,-0.105,-0.1072,-0.1074,-0.108,-0.1006,-0.0968,-0.0886,-0.0787,-0.0478,-0.0214,0.0081,0.0199,0.0273,0.0328,0.0251,0.0272,0.025,0.0263,0.0253,0.0336,0.0335,0.0334,0.0333,0.0333,-0.0991,-0.1025,-0.1053,-0.1101,-0.1137,-0.1179,-0.1203,-0.1177,-0.1164,-0.1062,-0.0961,-0.0776,-0.0484,-0.0048,0.0168,0.0384,0.0364,0.0417,0.0411,0.0404,0.0401,0.0384,0.0493,0.0493,0.0493,0.0493,0.0493,0,-0.1024,-0.1071,-0.1125,-0.1183,-0.1229,-0.1235,-0.1267,-0.1246,-0.1224,-0.109,-0.0967,-0.0661,-0.0335,-0.0054,0.0305,0.0504,0.049,0.0527,0.0473,0.0463,0.0453,0.045,0.0557,0.0557,0.0557,0.0558,0,0,-0.1045,-0.1101,-0.1131,-0.1231,-0.1284,-0.1324,-0.1345,-0.1297,-0.1195,-0.1066,-0.0916,-0.0655,-0.0324,-0.0062,0.0213,0.039,0.0367,0.0409,0.0345,0.0242,0.0229,0.0388,0.0372,0,0,0,0,0]}],[{"header":{"parameterUnit":"m.s-1","parameterCategory":2,"la1":30.2991,"la2":30.254,"lo1":-89.0895,"lo2":-89.0444,"dy":0.0017,"dx":0.0017,"nx":28,"ny":28,"refTime":"2023-10-30T21:00:00:Z","depth":"4","parameterNumber":2,"parameterNumberName":"U-component_of_CURRENTS"},"data":[0,0,0,0,0,0,0,0,0,0,0,0,0,0,0,0,0,0,0,0,0,0,0,0,0,0,0,0,0,0,0,0,0,0,0,0,0,0,0,0,0,0,0,0,0,0,0,0,0,0,0,0,0,0,0,0,0,0,-0.1527,-0.1528,0,-0.1574,-0.1574,-0.1574,-0.1597,-0.1597,-0.1597,-0.1598,-0.1738,-0.1741,-0.1744,0,0,0,0,0,0,0,0,0,0,0,0,0,-0.1429,-0.1431,-0.1527,-0.1528,-0.1529,-0.1574,-0.1574,-0.1574,-0.1596,-0.1597,-0.1598,-0.1598,-0.1737,-0.1741,-0.1744,0,0,0,0,0,0,0,0,0,0,0,0,0,-0.1468,-0.1431,-0.1527,-0.1549,-0.1552,-0.1574,-0.1574,-0.1575,-0.1596,-0.1597,-0.1598,-0.1598,-0.1735,-0.174,-0.1745,-0.1762,0,0,-0.176,-0.1762,0,0,0,0,0,0,0,0,-0.1466,-0.1471,-0.1545,-0.1548,-0.1551,-0.1585,-0.1592,-0.1644,-0.1596,-0.1574,-0.1598,-0.1599,-0.1698,-0.1706,-0.1705,-0.1768,-0.1774,-0.1761,-0.1764,-0.1766,-0.1767,0,0,0,0,0,0,0,-0.1463,-0.1469,-0.154,-0.1546,-0.155,-0.1549,-0.1555,-0.16,-0.1629,-0.1576,-0.1579,-0.1593,-0.17,-0.17,-0.1708,-0.1776,-0.176,-0.1765,-0.1768,-0.177,-0.1969,-0.1972,0,0,0,0,0,0,-0.1469,-0.1467,-0.1539,-0.1542,-0.1516,-0.155,-0.1557,-0.1569,-0.1627,-0.1637,-0.1592,-0.1594,-0.1691,-0.1703,-0.1714,-0.1826,-0.1766,-0.177,-0.1773,-0.1967,-0.197,-0.1972,0,0,0,0,0,0,-0.1467,-0.1475,-0.1537,-0.151,-0.1518,-0.1552,-0.1565,-0.157,-0.1604,-0.1639,-0.165,-0.1627,-0.1692,-0.1707,-0.1791,-0.1828,-0.1772,-0.1777,-0.1964,-0.1968,-0.1971,-0.1994,0,0,0,0,0,0,-0.1464,-0.1474,-0.1492,-0.151,-0.152,-0.1575,-0.1565,-0.157,-0.1612,-0.1615,-0.1672,-0.1683,-0.1694,-0.1783,-0.1796,-0.1834,-0.1781,-0.1961,-0.1966,-0.197,-0.199,-0.1998,-0.2004,0,0,0,0,0,-0.146,-0.1484,-0.1492,-0.1501,-0.1541,-0.1577,-0.1582,-0.1604,-0.1614,-0.1636,-0.168,-0.1683,-0.182,-0.179,-0.1803,-0.1844,-0.1959,-0.1965,-0.197,-0.1987,-0.1996,-0.2004,0,0,0,0,0,0,-0.1464,-0.1489,-0.1498,-0.1533,-0.1565,-0.1584,-0.1607,-0.1625,-0.1673,-0.1686,-0.1715,-0.173,-0.1814,-0.1834,-0.18,-0.1917,-0.189,-0.1899,-0.1899,-0.1908,-0.1915,-0.1897,-0.1785,0,0,0,0,0,-0.147,-0.1489,-0.1519,-0.1552,-0.1566,-0.1592,-0.1614,-0.1634,-0.1674,-0.1695,-0.174,-0.1792,-0.184,-0.1879,-0.1922,-0.1992,-0.1977,-0.2029,-0.2036,-0.2042,-0.204,-0.2042,-0.2047,-0.199,-0.199,-0.199,0,0,-0.1485,-0.1501,-0.1515,-0.1554,-0.1574,-0.1608,-0.1606,-0.1651,-0.169,-0.1707,-0.1785,-0.1822,-0.1865,-0.1935,-0.1975,-0.1962,-0.2053,-0.2048,-0.2052,-0.2047,-0.2047,-0.2052,-0.2057,-0.1993,-0.1993,-0.1992,0,0,-0.1517,-0.1534,-0.1559,-0.1585,-0.1628,-0.1641,-0.1665,-0.1708,-0.1736,-0.181,-0.1831,-0.189,-0.1975,-0.2002,-0.2027,-0.2105,-0.2087,-0.2134,-0.2159,-0.2161,-0.2165,-0.2168,-0.2153,-0.2154,-0.214,-0.214,-0.214,0,-0.153,-0.1568,-0.1577,-0.1609,-0.1638,-0.1663,-0.1704,-0.1733,-0.1807,-0.1838,-0.1846,-0.1959,-0.1998,-0.2066,-0.2094,-0.2118,-0.2111,-0.2117,-0.2166,-0.2169,-0.2171,-0.2155,-0.2156,-0.2141,-0.2141,-0.2141,-0.2141,0,-0.1579,-0.1616,-0.1635,-0.1676,-0.1708,-0.175,-0.1787,-0.1837,-0.1874,-0.1901,-0.1985,-0.2025,-0.2088,-0.2115,-0.2131,-0.2185,-0.2171,-0.2167,-0.2132,-0.2177,-0.2159,-0.2159,-0.2144,-0.2143,-0.2143,-0.2142,0,0,-0.1573,-0.1652,-0.166,-0.1687,-0.1747,-0.1772,-0.1842,-0.19,-0.194,-0.2002,-0.2053,-0.2131,-0.2144,-0.2174,-0.22,-0.2209,-0.2223,-0.2204,-0.2203,-0.2167,-0.2218,-0.21,-0.2089,-0.2226,-0.2227,-0.2227,-0.2195,0,-0.1604,-0.1673,-0.1711,-0.1778,-0.1805,-0.1853,-0.1909,-0.1967,-0.2011,-0.2066,-0.2101,-0.2157,-0.2168,-0.2199,-0.2213,-0.2227,-0.2228,-0.2232,-0.22,-0.2198,-0.2068,-0.2086,-0.2229,-0.2195,-0.2195,-0.2195,-0.2195,0,-0.1618,-0.1663,-0.1737,-0.1811,-0.1829,-0.188,-0.1954,-0.2012,-0.2085,-0.2119,-0.2169,-0.2193,-0.224,-0.2228,-0.2249,-0.2253,-0.2241,-0.2234,-0.2232,-0.2111,-0.208,-0.2145,-0.2196,-0.2196,-0.2196,-0.2196,-0.2196,0,-0.1567,-0.1666,-0.1724,-0.1753,-0.1849,-0.1898,-0.1953,-0.2031,-0.2071,-0.2148,-0.2175,-0.2226,-0.2251,-0.225,-0.2253,-0.2254,-0.2249,-0.2241,-0.2116,-0.2108,-0.2212,-0.2209,-0.2235,-0.2235,-0.2235,-0.2236,-0.2236,0,-0.1546,-0.1591,-0.1711,-0.1736,-0.18,-0.1879,-0.1944,-0.2007,-0.2085,-0.2119,-0.2195,-0.2212,-0.2258,-0.2266,-0.2255,-0.2183,-0.2248,-0.2112,-0.2089,-0.2225,-0.2224,-0.2211,-0.2209,-0.2234,-0.2235,-0.2235,-0.2235,0,-0.1462,-0.1551,-0.1611,-0.1732,-0.1772,-0.1811,-0.1921,-0.1959,-0.2053,-0.2098,-0.2122,-0.2202,-0.221,-0.2234,-0.223,-0.2167,-0.2121,-0.2081,-0.2219,-0.2207,-0.1976,-0.1976,-0.1918,-0.1913,-0.191,-0.1906,-0.1904,0,-0.1424,-0.1449,-0.1578,-0.1614,-0.1673,-0.1752,-0.1801,-0.1918,-0.1954,-0.207,-0.2075,-0.2128,-0.2163,-0.2053,-0.2101,-0.2052,-0.2036,-0.1991,-0.1982,-0.1957,-0.1943,-0.1949,-0.1954,-0.1898,-0.1897,-0.1896,-0.1895,0,-0.1334,-0.1392,-0.1444,-0.1517,-0.158,-0.1636,-0.172,-0.1729,-0.1858,-0.1964,-0.1965,-0.1962,-0.1969,-0.1961,-0.1941,-0.1911,-0.2007,-0.1951,-0.1958,-0.1949,-0.1932,-0.1923,-0.1932,-0.1881,-0.1883,-0.1885,-0.1885,0,-0.126,-0.127,-0.1346,-0.1394,-0.1471,-0.1495,-0.1556,-0.1605,-0.1655,-0.1799,-0.1794,-0.1863,-0.1948,-0.1888,-0.1872,-0.1831,-0.18,-0.1734,-0.1752,-0.1767,-0.1734,-0.1692,-0.1536,0,0,0,0,0,-0.1172,-0.1177,-0.1217,-0.1267,-0.134,-0.1383,-0.1492,-0.1561,-0.1689,-0.1645,-0.1714,-0.1717,-0.1696,-0.1737,-0.166,-0.1796,-0.1803,-0.1699,-0.1735,-0.1808,-0.1823,-0.1799,0,0,0,0,0,0,-0.1114,-0.115,-0.117,-0.115,-0.1161,-0.1224,-0.1286,-0.1379,-0.1371,-0.1507,-0.1506,-0.1609,-0.1615,-0.1709,-0.1622,-0.1632,-0.1618,-0.1753,-0.1748,-0.1799,-0.1813,-0.1825,-0.1806,0,0,0,0,0]},{"header":{"parameterUnit":"m.s-1","parameterCategory":2,"la1":30.2991,"la2":30.254,"lo1":-89.0895,"lo2":-89.0444,"dy":0.0017,"dx":0.0017,"nx":28,"ny":28,"refTime":"2023-10-30T21:00:00:Z","depth":"4","parameterNumber":3,"parameterNumberName":"V-component_of_CURRENTS"},"data":[0,0,0,0,0,0,0,0,0,0,0,0,0,0,0,0,0,0,0,0,0,0,0,0,0,0,0,0,0,0,0,0,0,0,0,0,0,0,0,0,0,0,0,0,0,0,0,0,0,0,0,0,0,0,0,0,0,0,-0.001,-0.001,0,0.0024,0.0024,0.0025,0.0056,0.0056,0.0056,0.0057,0.0137,0.0138,0.014,0,0,0,0,0,0,0,0,0,0,0,0,0,-0.0016,-0.0016,-0.001,-0.001,-0.0009,0.0024,0.0024,0.0025,0.0056,0.0056,0.0057,0.0057,0.0136,0.0138,0.014,0,0,0,0,0,0,0,0,0,0,0,0,0,-0.0001,-0.0016,-0.001,0.001,0.0012,0.0024,0.0024,0.0025,0.0056,0.0056,0.0057,0.0057,0.0135,0.0138,0.0141,0.0147,0,0,0.0149,0.015,0,0,0,0,0,0,0,0,-0.0002,-0.0,0.0006,0.0008,0.0011,0.0036,0.0051,0.0068,0.0056,0.0039,0.0057,0.0057,0.0106,0.0112,0.0117,0.0151,0.0154,0.0149,0.0151,0.0152,0.0153,0,0,0,0,0,0,0,-0.0003,-0.0002,0.0004,0.0007,0.0009,0.0028,0.0031,0.0055,0.0071,0.0041,0.0043,0.0046,0.0108,0.0114,0.0119,0.0155,0.0149,0.0151,0.0153,0.0154,0.0192,0.0191,0,0,0,0,0,0,-0.001,-0.0003,0.0003,0.0005,0.0005,0.0028,0.003,0.0028,0.007,0.0076,0.0046,0.0047,0.0109,0.0116,0.0122,0.0125,0.0152,0.0154,0.0156,0.0192,0.0191,0.0191,0,0,0,0,0,0,-0.0011,-0.001,0.0001,0.0002,0.0005,0.0027,0.0024,0.0028,0.0029,0.0073,0.008,0.0042,0.011,0.0118,0.0139,0.0129,0.0156,0.0158,0.0193,0.0192,0.0191,0.0137,0,0,0,0,0,0,-0.0011,-0.0011,-0.002,0.0001,0.0004,0.0001,0.0023,0.0028,0.0031,0.0033,0.0072,0.008,0.0111,0.0134,0.0141,0.0133,0.016,0.0194,0.0193,0.0191,0.0139,0.0134,0.0129,0,0,0,0,0,-0.0011,-0.0024,-0.002,-0.002,-0.0008,-0.0,0.0003,0.0022,0.003,0.0025,0.0054,0.0079,0.0132,0.0136,0.0145,0.0137,0.0194,0.0193,0.0191,0.0141,0.0135,0.0129,0,0,0,0,0,0,-0.0037,-0.0021,-0.0017,-0.0026,-0.0018,0.0005,0.0003,0.0013,0.0031,0.0037,0.0075,0.0084,0.0097,0.0123,0.0126,0.0143,0.0166,0.0166,0.0125,0.0119,0.0114,0.0112,0.0162,0,0,0,0,0,-0.0047,-0.005,-0.0034,-0.0045,-0.0041,-0.0022,-0.0019,-0.0005,0.0015,0.0022,0.0048,0.0076,0.0098,0.0112,0.0136,0.0147,0.0175,0.0146,0.0141,0.0137,0.014,0.0173,0.0172,0.0186,0.0186,0.0186,0,0,-0.006,-0.0053,-0.0056,-0.005,-0.0041,-0.0045,-0.0019,-0.0015,-0.0016,0.0029,0.0034,0.006,0.0096,0.0108,0.0116,0.0129,0.0144,0.0135,0.0131,0.0137,0.0172,0.0171,0.017,0.0185,0.0185,0.0186,0,0,-0.0091,-0.0082,-0.0097,-0.0091,-0.008,-0.0064,-0.0068,-0.0048,-0.0037,-0.0028,0.0002,0.0023,0.0052,0.0078,0.0095,0.0077,0.0115,0.0078,0.0057,0.0089,0.0088,0.0088,0.0109,0.0112,0.0079,0.0079,0.0079,0,-0.0109,-0.0127,-0.0102,-0.0114,-0.0114,-0.0079,-0.0095,-0.0078,-0.0056,-0.0047,-0.0034,0.001,0.004,0.006,0.0053,0.0066,0.0088,0.0076,0.0083,0.0083,0.0084,0.0107,0.011,0.0076,0.0076,0.0076,0.0077,0,-0.0153,-0.0164,-0.0171,-0.0174,-0.0169,-0.0175,-0.0147,-0.0139,-0.012,-0.0099,-0.0078,-0.0036,-0.0007,0.0,0.0024,0.0039,0.0052,0.007,0.0098,0.008,0.0104,0.0108,0.0072,0.0073,0.0074,0.0074,0,0,-0.0193,-0.0202,-0.0205,-0.0216,-0.02,-0.02,-0.0197,-0.0183,-0.0178,-0.0145,-0.0138,-0.0098,-0.0068,-0.0047,-0.0015,0.0015,0.0034,0.0041,0.0044,0.0063,0.0097,0.0117,0.0124,0.0054,0.0055,0.0055,0.0108,0,-0.0237,-0.0278,-0.0266,-0.0294,-0.0308,-0.0273,-0.0278,-0.0254,-0.022,-0.02,-0.0144,-0.0123,-0.0088,-0.0075,-0.0039,0.0021,0.0045,0.0018,0.0113,0.0116,0.0136,0.013,0.0058,0.0111,0.0112,0.0113,0.0113,0,-0.0283,-0.0302,-0.0346,-0.0354,-0.0357,-0.0369,-0.0355,-0.0348,-0.0299,-0.0274,-0.0228,-0.018,-0.0127,-0.0098,-0.0001,-0.002,0.003,0.0076,0.0079,0.0123,0.0144,0.0138,0.0122,0.0121,0.0121,0.012,0.012,0,-0.0323,-0.0353,-0.0391,-0.0395,-0.0401,-0.0413,-0.0411,-0.0376,-0.0368,-0.0313,-0.0297,-0.0221,-0.0183,-0.0104,0.0003,-0.0002,0.0112,0.0118,0.0179,0.0181,0.0172,0.0172,0.0174,0.0174,0.0174,0.0174,0.0174,0,-0.0364,-0.0392,-0.0416,-0.0434,-0.0476,-0.0459,-0.0481,-0.0461,-0.0431,-0.0419,-0.0338,-0.0305,-0.0182,-0.0095,-0.0008,0.0109,0.0106,0.0178,0.0199,0.0145,0.0141,0.0174,0.0174,0.0176,0.0176,0.0175,0.0175,0,-0.0392,-0.0413,-0.0454,-0.0482,-0.0496,-0.052,-0.0535,-0.0541,-0.0506,-0.0485,-0.0471,-0.0366,-0.0247,-0.0119,0.0019,0.0092,0.0201,0.0237,0.0168,0.0184,0.0246,0.0241,0.0302,0.0303,0.0305,0.0305,0.0306,0,-0.0407,-0.0435,-0.049,-0.0523,-0.054,-0.0574,-0.0599,-0.0583,-0.0579,-0.0516,-0.0505,-0.0393,-0.0308,-0.0093,0.0038,0.0211,0.0232,0.0279,0.0263,0.0246,0.026,0.0254,0.0249,0.0308,0.0308,0.0308,0.0309,0,-0.0426,-0.0453,-0.0487,-0.056,-0.0604,-0.0644,-0.0669,-0.0675,-0.0642,-0.0615,-0.0521,-0.0397,-0.0259,-0.0089,0.0053,0.0173,0.0249,0.029,0.0288,0.0274,0.0253,0.0265,0.0259,0.0312,0.0312,0.0311,0.0311,0,-0.0433,-0.0468,-0.0523,-0.0582,-0.0646,-0.0692,-0.0705,-0.069,-0.0679,-0.0601,-0.057,-0.0409,-0.0312,-0.0108,0.0023,0.0151,0.0173,0.02,0.0203,0.0201,0.0163,0.0121,0.016,0,0,0,0,0,-0.0426,-0.0475,-0.0539,-0.0607,-0.0673,-0.0706,-0.074,-0.074,-0.0711,-0.065,-0.0606,-0.047,-0.025,-0.0149,-0.0019,0.0025,0.0182,0.018,0.021,0.0332,0.0328,0.0303,0,0,0,0,0,0,-0.0423,-0.0492,-0.0534,-0.0613,-0.0662,-0.0728,-0.0753,-0.0739,-0.0693,-0.0643,-0.0523,-0.0442,-0.0229,-0.0322,-0.0015,0.0025,0.006,0.029,0.0293,0.0334,0.033,0.0327,0.0301,0,0,0,0,0]}]]